THORAD AGENA D DEB, 4993

Orbit data source: Space-Track

THORAD AGENA D DEB, 4993 is space debris in SSO originally from a launch on Wed, 08 Apr 1970 UTC launched from the Air Force Western Test Range (AFWTR). Debris objects in space refer to the collection of defunct objects orbiting the Earth. Examples of debris include non-operational satellites, rocket bodies, and fragments generated from explosions, collisions, or faulty payload assembly.

Loading next visibility...
Identifier
4993, 1970-025HP
Orbit
SSO
Country
Flag of USUS
Related business
Manufacturer
Unknown
Mission
Spacecraft
Bus & Motor
Unknown
Mass
Unknown
Launch date (UTC)
1970-04-08 (56 years ago)
Launch vehicle
Unknown
Launch site
Air Force Western Test Range (AFWTR)
Object type
Payload
Rocket body
Debris
Shape & HBR
Unknown shape, 0.1 m
Radar Cross Section
Small (<0.1 m²)

Expand to show TLE details & history
Last TLE update: 13 hours ago

TLE from 13 hours ago
0 THORAD AGENA D DEB
1 04993U 70025HP  25348.85181781  .00001428  00000-0  94973-3 0  9990
2 04993 100.1806 110.9035 0083040 125.0312 235.8677 14.01571788812901
Epoch: 2025-12-14T20:26Z
TLE epoch observation values (Epoch: 2025-12-14T20:26:37.058Z)
Latitude
-0.00001°
Longitude
80.4903°
Altitude
925.402 km
Speed
7.372 km/s
True Right ascension
07h 23m 36s
True Declination
0° 00' 00"
Sunlit
Object was in full shadow at epoch
Visualization orbit readout
Latitude
Unknown
Longitude
Unknown
Altitude
Unknown
Speed
Unknown
Apparent Right ascension
Unknown
Apparent Declination
Unknown
Sunlit
N/A
Visualization observer readout
Local Sidereal Time
07:45:40
Azimuth
Unknown
Elevation
Unknown
Doppler factor
Unknown
Orbital elements
Apogee altitude
945.934 km
Perigee altitude
825.298 km
Semi-major axis
7,263.753 km
Eccentricity
0.0083
Inclination
100.1806°
RAAN
110.9035°
Arg. of periapsis
125.0312°
True anomaly
235.08463°
Mean anomaly
235.8677°
Eccentric anomaly
235.47571°
Mean motion
3.50592 °/min
Orbital period
102.68 mins
BSTAR
0.00094973

Documentation

Showing up to 5 results
|